Showing default

CAT 3, 12546

Orbit data source: Space-Track

CAT 3, 12546 is a payload satellite owned by ESA (ESA) in HEO that was launched on Fri, 19 Jun 1981 UTC via an ARIANE 1 launch vehicle from the French Guiana (FRGUI). Payload-class satellites include a variety of spacecraft equipped with specific instruments for various scientific and technological missions. These include communications satellites like Starlink; space stations such as the ISS; scientific satellites like the Hubble; Earth observation satellites from companies like Planet Labs, Umbra, and HawkEye 360; GPS; miniature CubeSats for education and research; and military/defense satellites.

Loading next visibility...
Identifier
12546, 1981-057C
Orbit
HEO
Country
Flag of ESAESA
Related business
Manufacturer
AERIT/CNEST
Mission
Non-operational Civil Technology
Bus & Motor
CAT, Unknown motor
Mass
266 kg wet, 266 kg dry
Launch date (UTC)
1981-06-19 (44 years ago)
Launch vehicle
ARIANE 1
Launch site
French Guiana (FRGUI)
Object type
Payload
Rocket body
Debris
Shape & HBR
Cyl, 0.6 m
Radar Cross Section
1.319 m², Large (>1 m²)

Expand to show TLE details & history
Last TLE update: 1 day ago

TLE from 1 day ago
0 CAT 3
1 12546U 81057C   25260.69539995  .00001861  00000-0  45978-3 0  9991
2 12546  10.1914  85.7216 5692464 326.7904   7.7840  4.48772994402794
Epoch: 2025-09-17T16:41Z
TLE epoch observation values (Epoch: 2025-09-17T16:41:22.555Z)
Latitude
0.00009°
Longitude
-161.44407°
Altitude
737.059 km
Speed
9.293 km/s
True Right ascension
05h 43m 04s
True Declination
0° 00' 00"
Sunlit
Object was in daylight at epoch
Visualization orbit readout
Latitude
Unknown
Longitude
Unknown
Altitude
Unknown
Speed
Unknown
Apparent Right ascension
Unknown
Apparent Declination
Unknown
Sunlit
N/A
Visualization observer readout
Local Sidereal Time
12:52:25
Azimuth
Unknown
Elevation
Unknown
Doppler factor
Unknown
Orbital elements
Apogee altitude
17,993.135 km
Perigee altitude
311.707 km
Semi-major axis
15,530.558 km
Eccentricity
0.56925
Inclination
10.1914°
RAAN
85.7216°
Arg. of periapsis
326.7904°
True anomaly
33.10283°
Mean anomaly
7.784°
Eccentric anomaly
17.70036°
Mean motion
1.12141 °/min
Orbital period
321.03 mins
BSTAR
0.00045978
Loading maneuver chart data...
Computing Atmospheric mass density...
Loading historical data...
Loading historical data...
Loading historical data...
Loading historical data...
Loading historical data...
Loading historical data...
Loading historical data...

Documentation

Showing up to 5 results
|